TimeCST,TemperatureF,Dew PointF,Humidity,Sea Level PressureIn,VisibilityMPH,Wind Direction,Wind SpeedMPH,Gust SpeedMPH,PrecipitationIn,Events,Conditions,WindDirDegrees,DateUTC
12:03 AM,12.2,6.8,79,30.01,10.0,West,6.9,-,N/A,,Overcast,280,2013-01-02 06:03:00
12:54 AM,12.9,8.1,81,30.10,8.0,WNW,3.5,-,N/A,,Overcast,290,2013-01-02 06:54:00
1:54 AM,12.9,9.0,84,30.09,8.0,WSW,3.5,-,N/A,,Overcast,250,2013-01-02 07:54:00
2:54 AM,12.9,9.0,84,30.10,9.0,WSW,4.6,-,N/A,,Overcast,240,2013-01-02 08:54:00
3:54 AM,14.0,9.0,80,30.11,10.0,SW,3.5,-,N/A,,Overcast,220,2013-01-02 09:54:00
4:54 AM,14.0,9.0,80,30.10,10.0,SSW,4.6,-,N/A,,Overcast,200,2013-01-02 10:54:00
5:54 AM,14.0,10.9,88,30.10,9.0,SSW,5.8,-,N/A,,Overcast,200,2013-01-02 11:54:00
6:25 AM,15.8,10.4,79,30.00,10.0,Calm,Calm,-,N/A,,Overcast,0,2013-01-02 12:25:00
6:54 AM,15.1,10.9,84,30.09,10.0,Calm,Calm,-,N/A,,Overcast,0,2013-01-02 12:54:00
7:14 AM,14.0,10.4,86,30.00,10.0,SSE,5.8,-,N/A,,Overcast,150,2013-01-02 13:14:00
7:54 AM,14.0,10.0,84,30.09,9.0,SSE,5.8,-,N/A,,Overcast,160,2013-01-02 13:54:00
8:10 AM,14.0,10.4,86,30.01,9.0,SSE,5.8,-,N/A,,Overcast,160,2013-01-02 14:10:00
8:22 AM,14.0,10.4,86,30.01,9.0,SSE,3.5,-,N/A,,Overcast,150,2013-01-02 14:22:00
8:54 AM,15.1,12.0,88,30.10,9.0,SSE,4.6,-,N/A,,Overcast,160,2013-01-02 14:54:00
9:31 AM,15.8,10.4,79,30.01,9.0,SSE,6.9,-,N/A,,Mostly Cloudy,160,2013-01-02 15:31:00
9:54 AM,16.0,10.9,81,30.10,10.0,South,6.9,-,N/A,,Overcast,180,2013-01-02 15:54:00
10:54 AM,18.0,9.0,68,30.08,10.0,South,8.1,-,N/A,,Overcast,170,2013-01-02 16:54:00
11:34 AM,19.4,6.8,58,29.98,10.0,South,11.5,-,N/A,,Scattered Clouds,190,2013-01-02 17:34:00
11:54 AM,19.0,8.1,62,30.06,10.0,SSW,8.1,-,N/A,,Mostly Cloudy,200,2013-01-02 17:54:00
12:54 PM,19.9,9.0,62,30.03,10.0,South,8.1,-,N/A,,Overcast,190,2013-01-02 18:54:00
1:54 PM,19.9,10.0,65,30.02,10.0,South,8.1,-,N/A,,Overcast,170,2013-01-02 19:54:00
2:54 PM,19.9,9.0,62,30.03,10.0,South,6.9,-,N/A,,Overcast,170,2013-01-02 20:54:00
3:54 PM,19.9,9.0,62,30.03,10.0,SE,6.9,-,N/A,,Overcast,140,2013-01-02 21:54:00
4:54 PM,19.9,9.0,62,30.04,10.0,SE,5.8,-,N/A,,Overcast,130,2013-01-02 22:54:00
5:54 PM,19.0,9.0,65,30.05,10.0,SSE,5.8,-,N/A,,Overcast,160,2013-01-02 23:54:00
6:30 PM,19.4,8.6,63,29.98,10.0,South,5.8,-,N/A,,Overcast,180,2013-01-03 00:30:00
6:54 PM,19.0,9.0,65,30.06,10.0,South,5.8,-,N/A,,Overcast,170,2013-01-03 00:54:00
7:43 PM,17.6,6.8,63,29.97,10.0,SSE,3.5,-,N/A,,Scattered Clouds,160,2013-01-03 01:43:00
7:54 PM,16.0,6.1,65,30.06,10.0,Calm,Calm,-,N/A,,Scattered Clouds,0,2013-01-03 01:54:00
8:05 PM,17.6,6.8,63,29.97,10.0,Calm,Calm,-,N/A,,Mostly Cloudy,0,2013-01-03 02:05:00
8:30 PM,17.6,8.6,68,29.96,10.0,SSE,3.5,-,N/A,,Overcast,150,2013-01-03 02:30:00
8:45 PM,17.6,8.6,68,29.96,10.0,Calm,Calm,-,N/A,,Overcast,0,2013-01-03 02:45:00
8:54 PM,18.0,8.1,65,30.04,10.0,SSE,3.5,-,N/A,,Overcast,160,2013-01-03 02:54:00
9:54 PM,18.0,9.0,68,30.04,10.0,SW,4.6,-,N/A,,Overcast,220,2013-01-03 03:54:00
10:05 PM,17.6,8.6,68,29.96,10.0,SW,5.8,-,N/A,,Overcast,220,2013-01-03 04:05:00
10:54 PM,19.0,10.9,71,30.04,10.0,West,8.1,-,N/A,,Overcast,280,2013-01-03 04:54:00
11:54 PM,18.0,10.9,74,30.04,8.0,WNW,5.8,-,N/A,,Overcast,290,2013-01-03 05:54:00